SL-14 R/B, 22784

Orbit data source: Space-Track

SL-14 R/B, 22784 is space debris in LEO originally from a launch on Tue, 31 Aug 1993 UTC launched from the Plesetsk Missile And Space Complex (PKMTR). Debris objects in space refer to the collection of defunct objects orbiting the Earth. Examples of debris include non-operational satellites, rocket bodies, and fragments generated from explosions, collisions, or faulty payload assembly.

Loading next visibility...
Identifier
22784, 1993-055C
Orbit
LEO
Last TLE update
15 hours ago
Origin
Manufacturer
Yuzhnoe
Mission
Spacecraft
Bus & Motor
S5M, Unknown motor
Mass
1,600 kg wet, 1,600 kg dry
Launch date (UTC)
1993-08-31 (32 years ago)
Launch vehicle
Unknown
Launch site
Plesetsk Missile And Space Complex (PKMTR)
Object type
Payload
Rocket body
Debris
Shape & HBR
Cyl, 2.7 m
Radar Cross Section
7.351 m², Large (>1 m²)

Expand to show TLE details & history

TLE from 15 hours ago
0 SL-14 R/B
1 22784U 93055C   25191.56188319  .00000034  00000-0  17317-4 0  9994
2 22784  82.5485 210.8215 0023390 100.2016  12.8639 13.83532320608488
Epoch: 2025-07-10T13:29Z
TLE epoch observation values (Epoch: 2025-07-10T13:29:06.707Z)
Latitude
65.85137°
Longitude
-117.0528°
Altitude
946.042 km
Speed
7.393 km/s
True Right ascension
00h 55m 48s
True Declination
65° 43' 34"
Sunlit
Object was in daylight at epoch
Visualization orbit readout
Latitude
26.74177°
Longitude
83.07345°
Altitude
949.153 km
Speed
7.382 km/s
Apparent Right ascension
11h 02m 37s
Apparent Declination
-10° 31' 43"
Sunlit
Object is in daylight
Visualization observer readout
Local Sidereal Time
16:58:27
Azimuth
261.234° W
Elevation
-5.945°
Doppler factor
1
Orbital elements
Apogee altitude
965.674 km
Perigee altitude
931.4 km
Semi-major axis
7,326.674 km
Eccentricity
0.00234
Inclination
82.5485°
RAAN
210.8215°
Arg. of periapsis
100.2016°
True anomaly
Unknown
Mean anomaly
12.8639°
Eccentric anomaly
Unknown
Mean motion
3.46085 °/min
Orbital period
104.02 mins
BSTAR
0.000017317
Loading maneuver chart data...
Loading SW <> Apogee altitude chart data...
Loading historical data...
Loading historical data...
Loading historical data...
Loading historical data...
Loading historical data...
Loading historical data...
Loading historical data...
Other satellites on launch #55 in the year 1993 (1993-08-31 UTC)

SL-14 R/B Visibility forecast

Observer location: undefined°, undefined°

Span
Click to sort rows by Start time (UTC) header in descending order
Start Az.
Max El. time (UTC)
Max El. Az.
Max El.
End time (UTC)
End Az.
9 mins2025-07-11 12:05:32.083Z21.245° NNE2025-07-11 12:09:32.083Z68.173° E23.567°2025-07-11 12:14:32.083Z126.325° SE
9 mins2025-07-11 13:50:32.083Z333.338° NNW2025-07-11 13:54:32.083Z277.965° WNW34.324°2025-07-11 13:59:32.083Z203.853° SW
10 mins2025-07-12 01:30:32.083Z162.432° S2025-07-12 01:34:32.083Z107.166° ESE38.214°2025-07-12 01:40:32.083Z18.05° NNE
7 mins2025-07-12 03:17:32.083Z256.341° W2025-07-12 03:20:32.083Z294.361° NW20.163°2025-07-12 03:24:32.083Z337.322° NNW
|